THOR ABLESTAR DEB, 13511

Orbit data source: Space-Track

THOR ABLESTAR DEB, 13511 is space debris in LEO originally from a launch on Thu, 29 Jun 1961 UTC launched from the Air Force Eastern Test Range (AFETR). Debris objects in space refer to the collection of defunct objects orbiting the Earth. Examples of debris include non-operational satellites, rocket bodies, and fragments generated from explosions, collisions, or faulty payload assembly.

Loading next visibility...
Identifier
13511, 1961-015KU
Orbit
LEO
Country
Flag of USUS
Related business
Manufacturer
Unknown
Mission
Spacecraft
Bus & Motor
Unknown
Mass
Unknown
Launch date (UTC)
1961-06-29 (65 years ago)
Launch vehicle
Unknown
Launch site
Air Force Eastern Test Range (AFETR)
Object type
Payload
Rocket body
Debris
Shape & HBR
Unknown shape, 0.1 m
Radar Cross Section
Small (<0.1 m²)

Expand to show TLE details & history
Last TLE update: 13 hours ago

TLE from 13 hours ago
0 THOR ABLESTAR DEB
1 13511U 61015KU  26126.53785286  .00000195  00000-0  30689-3 0  9999
2 13511  65.8421 323.3227 0122318 198.5071 193.2204 13.67814297285407
Epoch: 2026-05-06T12:54Z
TLE epoch observation values (Epoch: 2026-05-06T12:54:30.487Z)
Latitude
28.45259°
Longitude
-80.70771°
Altitude
1,098.027 km
Speed
7.263 km/s
True Right ascension
22h 29m 15s
True Declination
28° 18' 55"
Sunlit
Object was in daylight at epoch
Visualization orbit readout
Latitude
Unknown
Longitude
Unknown
Altitude
Unknown
Speed
Unknown
Apparent Right ascension
Unknown
Apparent Declination
Unknown
Sunlit
N/A
Visualization observer readout
Local Sidereal Time
10:06:08
Azimuth
Unknown
Elevation
Unknown
Doppler factor
Unknown
Orbital elements
Apogee altitude
1,096.27 km
Perigee altitude
915.629 km
Semi-major axis
7,384.086 km
Eccentricity
0.01223
Inclination
65.8421°
RAAN
323.3227°
Arg. of periapsis
198.5071°
True anomaly
192.90455°
Mean anomaly
193.2204°
Eccentric anomaly
193.06201°
Mean motion
3.42057 °/min
Orbital period
105.25 mins
BSTAR
0.00030689
Loading maneuver chart data...
Computing Atmospheric mass density...

Documentation

Showing up to 5 results
|